FW2982 Weather Reports


Display with metric or nautical units.
time (UTC)temp
F
wind
direction
speed
MPH
gust
MPH
rain 1hr
in
rain 24hr
in
rain mn
in
humidity
%
barometer
mb
20260904173939 91 338 2.0 4.0 0.02 0.52 0.43 64 1011.6
20260904173436 90 58 2.0 4.0 0.02 0.52 0.43 64 1011.7
20260904172936 90 55 1.0 4.0 0.02 0.52 0.43 63 1011.7
20260904172436 91 144 2.0 4.0 0.02 0.52 0.43 61 1011.9
20260904171935 90 55 1.0 4.0 0.02 0.52 0.43 63 1011.9
20260904171435 90 39 2.0 4.0 0.02 0.52 0.43 63 1011.9
20260904170937 90 59 1.0 4.0 0.01 0.52 0.42 63 1012.0
20260904170435 90 316 1.0 4.0 0.02 0.52 0.42 61 1011.9
20260904165934 90 0 1.0 5.0 0.02 0.50 0.42 64 1011.8
20260904165436 90 307 2.0 6.0 0.02 0.50 0.42 63 1011.9
20260904164934 90 62 2.0 6.0 0.02 0.50 0.42 63 1012.0
20260904164432 91 321 2.0 5.0 0.03 0.50 0.41 61 1012.1
20260904163931 90 216 2.0 4.0 0.02 0.50 0.41 64 1012.1
20260904163430 90 285 2.0 4.0 0.02 0.50 0.41 63 1012.4
20260904162930 90 28 2.0 6.0 0.02 0.50 0.41 63 1012.5
20260904162430 90 255 2.0 6.0 0.02 0.50 0.41 66 1012.6
20260904161928 90 244 2.0 5.0 0.03 0.50 0.41 64 1012.5
20260904161429 89 305 1.0 4.0 0.03 0.50 0.41 63 1012.5
20260904160926 89 52 2.0 4.0 0.03 0.50 0.41 65 1012.6
20260904160425 89 259 2.0 7.0 0.02 0.50 0.40 65 1012.7
20260904155946 89 124 2.0 4.0 0.03 0.47 0.40 65 1012.7
20260904155937 89 0 1.0 7.0 0.03 0.47 0.40 66 1012.6
20260904154923 89 283 2.0 5.0 0.03 0.47 0.40 65 1012.7
20260904154422 89 258 1.0 5.0 0.02 0.47 0.39 65 1012.6
20260904153918 89 82 3.0 5.0 0.02 0.47 0.39 65 1012.5
20260904153658 89 73 1.0 3.0 0.02 0.47 0.39 67 1012.6
20260904152915 88 276 1.0 3.0 0.02 0.47 0.39 69 1012.6
20260904152412 88 41 0.0 4.0 0.02 0.47 0.39 70 1012.6
20260904152150 89 41 1.0 5.0 0.01 0.47 0.38 69 1012.6
20260904151409 88 72 2.0 5.0 0.02 0.47 0.38 67 1012.8
20260904150908 89 258 1.0 5.0 0.02 0.47 0.38 68 1012.8
20260904150408 88 235 1.0 5.0 0.02 0.47 0.38 68 1012.8
20260904150144 88 276 2.0 4.0 0.01 0.46 0.37 70 1013.0
20260904145404 88 42 2.0 6.0 0.01 0.46 0.37 70 1013.0
20260904144904 88 1 2.0 6.0 0.01 0.46 0.37 70 1013.0
20260904144710 88 8 2.0 4.0 0.01 0.46 0.37 70 1012.9
20260904144418 87 59 1.0 5.0 0.01 0.46 0.37 70 1013.0
20260904143405 87 217 1.0 4.0 0.01 0.46 0.37 72 1012.8
20260904142905 87 296 1.0 4.0 0.01 0.46 0.37 73 1012.8
20260904142402 86 0 0.0 3.0 0.02 0.46 0.37 74 1012.8
20260904141902 87 292 1.0 3.0 0.02 0.46 0.37 75 1012.9
20260904141403 87 333 0.0 2.0 0.01 0.46 0.36 76 1012.8
20260904140904 85 350 0.0 2.0 0.01 0.46 0.36 77 1013.0
20260904140401 86 350 0.0 2.0 0.01 0.46 0.36 76 1012.9
20260904135902 85 331 0.0 2.0 0.01 0.45 0.36 76 1012.8
20260904135402 85 331 0.0 2.0 0.01 0.45 0.36 77 1012.9
20260904134902 84 341 0.0 3.0 0.01 0.45 0.36 79 1012.9
20260904134403 85 351 0.0 4.0 0.02 0.45 0.36 79 1012.8
20260904133902 85 340 0.0 4.0 0.02 0.45 0.36 80 1012.8
20260904133402 85 321 0.0 3.0 0.02 0.45 0.36 79 1012.9
20260904132901 84 190 0.0 3.0 0.03 0.45 0.36 82 1012.9
20260904132644 82 190 0.0 3.0 0.02 0.45 0.35 84 1012.8
20260904131900 82 148 0.0 1.0 0.02 0.45 0.35 86 1012.7
20260904131403 80 147 0.0 1.0 0.03 0.45 0.35 87 1012.7
20260904130917 79 148 0.0 0.0 0.03 0.45 0.35 88 1013.1
20260904130910 80 147 0.0 0.0 0.03 0.45 0.35 87 1012.8
20260904125853 80 148 0.0 0.0 0.04 0.41 0.35 87 1013.1
20260904125354 78 148 0.0 1.0 0.04 0.41 0.35 92 1013.0
20260904124853 77 147 0.0 1.0 0.04 0.41 0.35 93 1013.1
20260904124353 77 148 0.0 0.0 0.03 0.41 0.34 96 1013.1
20260904123854 75 148 0.0 0.0 0.03 0.41 0.34 96 1013.1
20260904123351 75 147 0.0 0.0 0.04 0.41 0.34 97 1013.0
20260904122851 74 148 0.0 1.0 0.03 0.41 0.33 97 1013.0
20260904122351 74 148 0.0 1.0 0.03 0.41 0.33 97 1012.8
20260904121840 73 148 0.0 0.0 0.03 0.41 0.33 97 1012.8
20260904121340 72 147 0.0 1.0 0.02 0.41 0.32 97 1012.7
20260904120840 72 148 0.0 1.0 0.02 0.41 0.32 97 1012.8
20260904120401 71 147 0.0 0.0 0.02 0.39 0.31 97 1012.8
20260904120354 71 147 0.0 1.0 0.03 0.41 0.31 97 1012.7
20260904115340 71 147 0.0 0.0 0.02 0.39 0.31 97 1012.8
20260904114836 71 147 0.0 2.0 0.02 0.39 0.31 97 1012.9
20260904114613 71 147 0.0 2.0 0.02 0.39 0.31 97 1012.8
20260904113833 70 147 0.0 2.0 0.01 0.39 0.30 97 1012.8
20260904113333 70 147 1.0 2.0 0.01 0.39 0.30 97 1012.7
20260904112834 70 147 0.0 1.0 0.02 0.39 0.30 97 1012.7
20260904112613 70 147 0.0 1.0 0.02 0.39 0.30 97 1012.6
20260904111833 70 147 0.0 0.0 0.02 0.39 0.30 97 1012.7
20260904111330 70 147 0.0 0.0 0.02 0.39 0.30 97 1012.7
20260904110831 70 147 0.0 0.0 0.02 0.39 0.30 97 1012.7
20260904110332 70 147 0.0 1.0 0.01 0.39 0.29 97 1012.6
20260904105832 70 147 0.0 1.0 0.01 0.38 0.29 97 1012.7
20260904105331 69 147 0.0 1.0 0.02 0.38 0.29 97 1012.8
20260904104833 70 147 0.0 1.0 0.02 0.38 0.29 97 1012.3
20260904104356 70 147 0.0 0.0 0.02 0.38 0.29 97 1012.7
20260904104347 70 147 0.0 1.0 0.02 0.38 0.29 97 1012.5
20260904103330 70 147 0.0 1.0 0.02 0.38 0.29 97 1012.5
20260904102831 70 147 0.0 1.0 0.01 0.38 0.28 97 1012.4
20260904102331 70 147 0.0 1.0 0.01 0.38 0.28 97 1012.3
20260904101831 70 147 0.0 2.0 0.02 0.38 0.28 97 1012.0
20260904101332 70 147 0.0 2.0 0.02 0.38 0.28 97 1011.9
20260904101111 70 147 1.0 2.0 0.02 0.38 0.28 97 1012.0
20260904100332 70 147 2.0 3.0 0.02 0.38 0.28 97 1012.1
20260904095832 70 148 0.0 3.0 0.03 0.35 0.28 97 1011.7
20260904095332 70 148 1.0 2.0 0.02 0.35 0.27 97 1011.6
20260904094832 70 149 0.0 0.0 0.02 0.35 0.27 97 1011.4
20260904094333 70 149 0.0 0.0 0.02 0.35 0.27 97 1011.3
20260904093831 70 149 0.0 0.0 0.02 0.35 0.27 96 1011.4
20260904093330 70 149 0.0 0.0 0.02 0.35 0.27 97 1011.3
20260904092833 70 149 0.0 0.0 0.03 0.35 0.27 97 1011.2
20260904092329 70 149 0.0 1.0 0.03 0.35 0.27 96 1011.1
20260904091852 70 149 0.0 1.0 0.03 0.35 0.26 97 1011.0
20260904091843 69 149 0.0 1.0 0.02 0.35 0.26 96 1011.1
20260904091105 69 149 0.0 0.0 0.03 0.35 0.26 96 1011.1
20260904090350 69 149 0.0 0.0 0.02 0.33 0.25 96 1011.3
20260904090341 69 149 0.0 0.0 0.03 0.35 0.26 96 1011.3
20260904085326 69 149 0.0 0.0 0.02 0.33 0.25 96 1011.4
20260904084824 69 149 0.0 0.0 0.03 0.33 0.25 96 1011.4
20260904084324 70 149 0.0 1.0 0.03 0.33 0.25 97 1011.5
20260904084101 70 149 0.0 1.0 0.03 0.33 0.25 97 1011.5
20260904083324 70 149 0.0 0.0 0.04 0.33 0.25 96 1011.5
20260904082823 70 149 0.0 0.0 0.03 0.33 0.24 96 1011.6
20260904082324 70 149 0.0 0.0 0.03 0.33 0.24 96 1011.5
20260904081824 70 149 0.0 0.0 0.03 0.33 0.24 96 1011.5
20260904081324 70 149 0.0 1.0 0.03 0.33 0.23 96 1011.5
20260904080823 70 149 0.0 1.0 0.03 0.33 0.23 96 1011.6
20260904080323 70 149 0.0 0.0 0.04 0.33 0.23 96 1011.5
20260904075823 70 149 0.0 0.0 0.04 0.29 0.23 96 1011.5
20260904075325 70 149 0.0 0.0 0.04 0.29 0.23 96 1011.5
20260904074824 70 149 0.0 0.0 0.03 0.29 0.22 96 1011.5
20260904074603 70 149 0.0 0.0 0.04 0.29 0.22 96 1011.5
20260904073825 70 149 0.0 1.0 0.04 0.29 0.22 96 1011.5
20260904073324 70 149 0.0 1.0 0.03 0.29 0.21 96 1011.5
20260904072823 70 149 0.0 2.0 0.04 0.29 0.21 96 1011.6
20260904072604 70 149 1.0 2.0 0.04 0.29 0.21 96 1011.6
20260904071822 70 149 0.0 0.0 0.04 0.29 0.21 96 1011.7
20260904071322 70 149 0.0 0.0 0.04 0.29 0.20 96 1011.8
20260904070822 70 149 0.0 0.0 0.04 0.29 0.20 96 1011.7
20260904070323 70 149 0.0 0.0 0.04 0.29 0.19 96 1011.8
20260904065824 70 149 0.0 0.0 0.04 0.25 0.19 96 1011.9
20260904065323 70 149 0.0 0.0 0.05 0.25 0.19 96 1011.9
20260904064823 70 149 0.0 2.0 0.05 0.25 0.19 96 1011.9
20260904064323 70 149 0.0 2.0 0.05 0.25 0.18 96 1011.8
20260904063822 70 154 2.0 2.0 0.05 0.25 0.18 96 1011.6
20260904063323 70 154 0.0 0.0 0.05 0.25 0.17 96 1011.3
20260904063101 70 154 0.0 0.0 0.05 0.25 0.17 96 1011.0
20260904062321 70 154 0.0 0.0 0.05 0.25 0.17 96 1010.9
20260904061821 70 154 0.0 0.0 0.06 0.25 0.17 96 1010.8
20260904061323 70 154 0.0 0.0 0.05 0.25 0.16 96 1010.8
20260904060822 70 154 0.0 0.0 0.06 0.25 0.15 96 1010.8
20260904060602 70 154 0.0 2.0 0.05 0.25 0.15 96 1010.7
20260904055821 70 154 1.0 2.0 0.06 0.19 0.15 96 1010.6
20260904055321 71 154 1.0 2.0 0.05 0.19 0.14 96 1010.5
20260904054821 70 154 0.0 0.0 0.06 0.19 0.14 96 1010.5
20260904054320 71 154 0.0 2.0 0.06 0.19 0.13 96 1010.6
20260904054059 71 154 0.0 2.0 0.06 0.19 0.13 96 1010.7
20260904053559 71 154 0.0 1.0 0.07 0.19 0.13 95 1011.3
20260904052818 71 154 0.0 1.0 0.07 0.19 0.12 95 1011.3
20260904052316 71 154 0.0 1.0 0.07 0.19 0.12 95 1011.5
20260904051815 71 154 0.0 3.0 0.07 0.19 0.11 95 1011.6
20260904051314 71 154 0.0 3.0 0.08 0.19 0.11 95 1011.6
20260904050812 71 154 0.0 3.0 0.08 0.19 0.10 95 1012.4
20260904050312 71 152 1.0 3.0 0.09 0.19 0.09 95 1012.6
20260904045810 71 90 1.0 2.0 0.09 0.10 0.09 95 1012.7
20260904045333 71 90 0.0 1.0 0.10 0.10 0.08 95 1012.7
20260904045323 71 90 1.0 2.0 0.10 0.10 0.09 95 1012.5
20260904044308 71 90 0.0 0.0 0.11 0.10 0.07 95 1013.0
20260904043803 71 90 0.0 1.0 0.12 0.10 0.06 95 1013.3
20260904043303 71 90 0.0 1.0 0.13 0.10 0.06 94 1013.5
20260904042803 71 90 0.0 1.0 0.14 0.10 0.05 94 1014.1
20260904042305 71 90 0.0 2.0 0.15 0.10 0.04 94 1014.3
20260904041802 71 90 1.0 2.0 0.14 0.10 0.03 94 1014.5
20260904041303 71 90 1.0 2.0 0.13 0.10 0.03 94 1014.6
20260904040802 71 89 1.0 3.0 0.12 0.10 0.02 94 1014.6
20260904040302 71 75 0.0 11.0 0.11 0.10 0.01 93 1014.7
20260904035825 71 86 2.0 5.0 0.09 0.00 0.08 93 1014.7
20260904035817 71 55 2.0 11.0 0.10 0.00 0.10 93 1014.6
20260904034802 71 313 1.0 10.0 0.08 0.00 0.07 92 1014.4
20260904034302 72 62 4.0 10.0 0.06 0.00 0.06 91 1014.5
20260904033803 74 32 3.0 16.0 0.05 0.00 0.04 91 1015.6
20260904033303 77 71 4.0 21.0 0.03 0.00 0.03 92 1015.9
20260904032803 79 286 7.0 21.0 0.01 0.00 0.01 94 1015.0
20260904032305 78 210 0.0 0.0 0.00 0.00 0.00 94 1012.6
20260904031803 78 210 0.0 1.0 0.00 0.00 0.00 94 1012.3
20260904031302 78 210 0.0 1.0 0.00 0.00 0.00 93 1011.9
20260904030803 78 209 0.0 1.0 0.00 0.00 0.00 94 1011.5
20260904030303 78 209 0.0 1.0 0.00 0.00 0.00 94 1011.4
20260904025804 78 209 0.0 0.0 0.00 0.00 0.00 93 1011.4
20260904025306 78 209 0.0 0.0 0.00 0.00 0.00 93 1011.5
20260904025039 78 209 0.0 0.0 0.00 0.00 0.00 93 1011.8
20260904024751 78 209 0.0 0.0 0.00 0.00 0.00 93 1011.7
20260904023735 78 209 0.0 0.0 0.00 0.00 0.00 93 1011.9
20260904023510 78 209 0.0 0.0 0.00 0.00 0.00 93 1012.0
20260904022730 78 209 0.0 0.0 0.00 0.00 0.00 93 1012.0
20260904022511 78 209 0.0 0.0 0.00 0.00 0.00 92 1012.1
20260904021718 78 209 0.0 0.0 0.00 0.00 0.00 92 1012.0
20260904021217 79 209 0.0 0.0 0.00 0.00 0.00 92 1012.1
20260904020717 79 209 0.0 0.0 0.00 0.00 0.00 92 1012.0
20260904020216 79 209 0.0 0.0 0.00 0.00 0.00 92 1012.1
20260904015717 79 209 0.0 0.0 0.00 0.00 0.00 92 1012.0
20260904015216 79 209 0.0 0.0 0.00 0.00 0.00 92 1012.0
20260904014708 79 209 0.0 0.0 0.00 0.00 0.00 92 1012.1
20260904014203 79 209 0.0 0.0 0.00 0.00 0.00 92 1012.0
20260904013706 79 209 0.0 0.0 0.00 0.00 0.00 91 1011.9
20260904013206 79 209 0.0 0.0 0.00 0.00 0.00 91 1012.0
20260904012703 79 209 0.0 0.0 0.00 0.00 0.00 91 1012.1
20260904012206 79 209 0.0 0.0 0.00 0.00 0.00 91 1012.0
20260904011702 80 209 0.0 0.0 0.00 0.00 0.00 91 1011.8
20260904011205 79 209 0.0 0.0 0.00 0.00 0.00 91 1011.9
20260904010702 79 209 0.0 0.0 0.00 0.00 0.00 91 1011.9
20260904010511 80 209 0.0 0.0 0.00 0.00 0.00 90 1012.0
20260904010221 79 209 0.0 0.0 0.00 0.00 0.00 91 1011.9
20260904005204 80 209 0.0 0.0 0.00 0.00 0.00 90 1011.9
20260904005156 80 209 0.0 0.0 0.00 0.00 0.00 90 1012.1
20260904004132 80 209 0.0 0.0 0.00 0.00 0.00 90 1012.3
20260904003634 80 209 0.0 0.0 0.00 0.00 0.00 90 1012.4
20260904003131 80 209 0.0 0.0 0.00 0.00 0.00 90 1012.5
20260904002633 80 209 0.0 0.0 0.00 0.00 0.00 89 1012.6
20260904002131 81 209 0.0 1.0 0.00 0.00 0.00 89 1012.6
20260904001630 81 209 0.0 1.0 0.00 0.00 0.00 88 1012.7
20260904001111 81 209 0.0 0.0 0.00 0.00 0.00 87 1012.6
20260904000609 81 209 0.0 0.0 0.00 0.00 0.00 87 1012.6
20260904000109 81 209 0.0 0.0 0.00 0.00 0.00 87 1012.7
20260903235609 82 209 0.0 0.0 0.00 0.00 0.00 86 1012.6
20260903235111 82 209 0.0 0.0 0.00 0.00 0.00 85 1012.5
20260903234609 82 209 0.0 0.0 0.00 0.00 0.00 86 1012.5
20260903234108 82 209 0.0 0.0 0.00 0.00 0.00 85 1012.3
20260903233848 82 209 0.0 0.0 0.00 0.00 0.00 85 1011.9
20260903233109 83 209 0.0 1.0 0.00 0.00 0.00 85 1011.9
20260903232604 83 209 0.0 1.0 0.00 0.00 0.00 84 1011.7
20260903232104 84 209 0.0 0.0 0.00 0.00 0.00 83 1011.8
20260903231844 84 209 0.0 0.0 0.00 0.00 0.00 83 1011.7
20260903231345 84 209 0.0 0.0 0.00 0.00 0.00 82 1011.7
20260903230558 85 209 0.0 0.0 0.00 0.00 0.00 81 1011.7
20260903230058 85 209 0.0 0.0 0.00 0.00 0.00 80 1011.6
20260903225833 85 209 0.0 0.0 0.00 0.00 0.00 80 1011.6
20260903225052 85 209 0.0 0.0 0.00 0.00 0.00 79 1011.6
20260903224552 86 209 0.0 1.0 0.00 0.00 0.00 78 1011.5
20260903224055 87 209 0.0 1.0 0.00 0.00 0.00 77 1011.5
20260903223532 87 209 0.0 1.0 0.00 0.00 0.00 76 1011.4
20260903223034 87 209 0.0 3.0 0.00 0.00 0.00 75 1011.3
20260903222532 87 209 0.0 5.0 0.00 0.00 0.00 74 1011.4
20260903222033 88 245 1.0 5.0 0.00 0.00 0.00 74 1011.3
20260903221531 88 213 0.0 2.0 0.00 0.00 0.00 74 1011.3
20260903221305 88 230 0.0 0.0 0.00 0.00 0.00 75 1011.3
20260903220518 87 230 0.0 4.0 0.00 0.00 0.00 75 1011.4
20260903220012 88 228 0.0 4.0 0.00 0.00 0.00 74 1011.3
20260903215511 88 344 1.0 3.0 0.00 0.00 0.00 73 1011.4
20260903215031 89 252 1.0 5.0 0.00 0.00 0.00 71 1011.4
20260903215023 89 224 1.0 3.0 0.00 0.00 0.00 72 1011.4
20260903214012 89 0 2.0 5.0 0.00 0.00 0.00 70 1011.3
20260903213511 89 312 0.0 3.0 0.00 0.00 0.00 72 1011.4
20260903213012 89 341 0.0 3.0 0.00 0.00 0.00 72 1011.4
20260903212507 90 303 1.0 3.0 0.00 0.00 0.00 68 1011.3
20260903212030 90 257 1.0 5.0 0.00 0.00 0.00 69 1011.5
20260903212023 90 255 1.0 5.0 0.00 0.00 0.00 67 1011.4
20260903211007 90 299 0.0 3.0 0.00 0.00 0.00 67 1011.5
20260903210505 90 303 1.0 4.0 0.00 0.00 0.00 68 1011.5
20260903210005 90 0 0.0 4.0 0.00 0.00 0.00 68 1011.5
20260903205749 91 310 2.0 3.0 0.00 0.00 0.00 66 1011.5
20260903205005 91 276 1.0 2.0 0.00 0.00 0.00 65 1011.6
20260903204505 91 288 0.0 6.0 0.00 0.00 0.00 65 1011.6
20260903204006 91 285 1.0 6.0 0.00 0.00 0.00 65 1011.7
20260903203505 91 306 1.0 4.0 0.00 0.00 0.00 66 1011.8
20260903203004 91 276 2.0 4.0 0.00 0.00 0.00 66 1011.8
20260903202504 91 251 1.0 3.0 0.00 0.00 0.00 67 1011.8
20260903202005 91 334 1.0 5.0 0.00 0.00 0.00 67 1011.8
20260903201504 91 268 3.0 5.0 0.00 0.00 0.00 67 1011.9
20260903201004 91 240 1.0 4.0 0.00 0.00 0.00 69 1012.0
20260903200505 91 230 1.0 3.0 0.00 0.00 0.00 67 1012.1
20260903200243 91 144 1.0 4.0 0.00 0.00 0.00 67 1012.1
20260903195503 91 204 2.0 4.0 0.00 0.00 0.00 66 1012.3
20260903195244 91 295 1.0 3.0 0.00 0.00 0.00 66 1012.4
20260903194504 92 286 1.0 4.0 0.00 0.00 0.00 66 1012.6
20260903194004 91 209 2.0 4.0 0.00 0.00 0.00 68 1012.6
20260903193503 91 189 1.0 4.0 0.00 0.00 0.00 68 1012.6
20260903193003 91 275 1.0 3.0 0.00 0.00 0.00 69 1012.7
20260903192744 90 274 1.0 3.0 0.00 0.00 0.00 69 1012.7
20260903192006 91 347 0.0 4.0 0.00 0.00 0.00 65 1013.0
20260903191502 91 340 1.0 4.0 0.00 0.00 0.00 67 1013.1
20260903191003 90 0 1.0 4.0 0.00 0.00 0.00 70 1013.2
20260903190504 89 351 2.0 4.0 0.00 0.00 0.00 72 1013.2
20260903185931 89 299 0.0 3.0 0.00 0.00 0.00 72 1013.4
20260903185431 88 190 1.0 3.0 0.00 0.00 0.00 72 1013.4
20260903184932 87 281 0.0 0.0 0.00 0.01 0.00 75 1013.5
20260903184710 87 281 0.0 0.0 0.00 0.01 0.00 74 1013.3
20260903183932 86 281 0.0 0.0 0.00 0.02 0.00 75 1013.5
20260903183431 86 283 0.0 0.0 0.00 0.03 0.00 77 1013.5
20260903182930 86 283 0.0 1.0 0.00 0.05 0.00 76 1013.5
20260903182520 87 275 1.0 3.0 0.00 0.13 0.00 74 1013.5
20260903182505 86 283 0.0 2.0 0.00 0.07 0.00 76 1013.4
20260903182231 86 283 0.0 3.0 0.00 0.09 0.00 74 1013.5
20260903180932 88 347 1.0 2.0 0.00 0.18 0.00 73 1013.8
20260903180711 88 285 1.0 2.0 0.00 0.18 0.00 71 1013.8
20260903175931 87 357 0.0 2.0 0.00 0.18 0.00 73 1013.9
20260903175431 87 357 0.0 2.0 0.00 0.18 0.00 71 1014.0
20260903174932 88 288 1.0 3.0 0.00 0.18 0.00 72 1013.9
20260903174431 87 290 1.0 3.0 0.00 0.18 0.00 70 1013.7